| time (UTC) | temp C | wind direction | speed KPH | gust KPH | rain 1hr cm | rain 24hr cm | rain mn cm | humidity % | barometer mb |
| 20260507201756 | 17 | 282 | 0.0 | 3.2 | 0.00 | 0.36 | 0.20 | 37 | 1003.2 |
| 20260507201254 | 17 | 270 | 0.0 | 3.2 | 0.00 | 0.36 | 0.20 | 33 | 1003.1 |
| 20260507200754 | 17 | 269 | 0.0 | 3.2 | 0.00 | 0.36 | 0.20 | 34 | 1003.2 |
| 20260507200513 | 17 | 3 | 0.0 | 3.2 | 0.00 | 0.36 | 0.20 | 33 | 1003.2 |
| 20260507195752 | 17 | 330 | 0.0 | 3.2 | 0.00 | 0.36 | 0.20 | 34 | 1003.3 |
| 20260507195254 | 17 | 355 | 0.0 | 1.6 | 0.00 | 0.36 | 0.20 | 33 | 1003.2 |
| 20260507194753 | 17 | 253 | 0.0 | 1.6 | 0.00 | 0.36 | 0.20 | 31 | 1003.4 |
| 20260507194253 | 17 | 15 | 0.0 | 1.6 | 0.00 | 0.38 | 0.20 | 34 | 1003.4 |
| 20260507193747 | 17 | 335 | 0.0 | 6.4 | 0.00 | 0.38 | 0.20 | 34 | 1003.4 |
| 20260507193242 | 17 | 345 | 0.0 | 6.4 | 0.00 | 0.38 | 0.20 | 34 | 1003.5 |
| 20260507192954 | 17 | 359 | 0.0 | 3.2 | 0.00 | 0.41 | 0.20 | 32 | 1003.5 |
| 20260507192227 | 17 | 9 | 0.0 | 3.2 | 0.00 | 0.41 | 0.20 | 33 | 1003.7 |
| 20260507191724 | 17 | 321 | 0.0 | 1.6 | 0.00 | 0.41 | 0.20 | 33 | 1003.6 |
| 20260507191225 | 17 | 198 | 0.0 | 1.6 | 0.00 | 0.41 | 0.20 | 33 | 1003.7 |
| 20260507190724 | 17 | 338 | 0.0 | 1.6 | 0.00 | 0.41 | 0.20 | 29 | 1003.8 |
| 20260507190225 | 17 | 14 | 0.0 | 1.6 | 0.00 | 0.41 | 0.20 | 32 | 1003.7 |
| 20260507185725 | 17 | 355 | 0.0 | 1.6 | 0.00 | 0.41 | 0.20 | 31 | 1003.8 |
| 20260507185223 | 17 | 340 | 0.0 | 1.6 | 0.00 | 0.41 | 0.20 | 30 | 1003.9 |
| 20260507184723 | 17 | 158 | 0.0 | 11.3 | 0.00 | 0.41 | 0.20 | 30 | 1003.9 |
| 20260507184222 | 17 | 8 | 0.0 | 11.3 | 0.00 | 0.41 | 0.20 | 31 | 1004.0 |
| 20260507183724 | 17 | 317 | 0.0 | 8.0 | 0.00 | 0.41 | 0.20 | 30 | 1004.0 |
| 20260507183224 | 17 | 28 | 0.0 | 6.4 | 0.00 | 0.41 | 0.20 | 30 | 1004.0 |
| 20260507182713 | 17 | 3 | 0.0 | 6.4 | 0.00 | 0.41 | 0.20 | 30 | 1003.9 |
| 20260507182216 | 17 | 336 | 0.0 | 9.7 | 0.00 | 0.41 | 0.20 | 30 | 1004.0 |
| 20260507181712 | 17 | 355 | 0.0 | 9.7 | 0.00 | 0.41 | 0.20 | 30 | 1004.1 |
| 20260507181210 | 17 | 318 | 1.6 | 12.9 | 0.00 | 0.41 | 0.20 | 30 | 1004.2 |
| 20260507180711 | 17 | 319 | 0.0 | 12.9 | 0.00 | 0.41 | 0.20 | 30 | 1004.2 |
| 20260507180212 | 17 | 266 | 0.0 | 4.8 | 0.00 | 0.41 | 0.20 | 35 | 1004.2 |
| 20260507175712 | 17 | 334 | 0.0 | 8.0 | 0.00 | 0.41 | 0.20 | 36 | 1004.2 |
| 20260507175211 | 17 | 184 | 0.0 | 8.0 | 0.00 | 0.41 | 0.20 | 35 | 1004.1 |
| 20260507174932 | 17 | 338 | 0.0 | 0.0 | 0.00 | 0.41 | 0.20 | 36 | 1004.3 |
| 20260507174200 | 17 | 332 | 0.0 | 6.4 | 0.00 | 0.41 | 0.20 | 36 | 1004.2 |
| 20260507173659 | 17 | 334 | 0.0 | 8.0 | 0.00 | 0.41 | 0.20 | 41 | 1004.1 |
| 20260507173200 | 17 | 22 | 0.0 | 8.0 | 0.00 | 0.41 | 0.20 | 39 | 1004.1 |
| 20260507172658 | 17 | 314 | 1.6 | 9.7 | 0.00 | 0.41 | 0.20 | 37 | 1004.3 |
| 20260507172158 | 17 | 315 | 1.6 | 9.7 | 0.00 | 0.41 | 0.20 | 39 | 1004.2 |
| 20260507171659 | 16 | 316 | 1.6 | 8.0 | 0.00 | 0.41 | 0.20 | 37 | 1004.3 |
| 20260507171159 | 16 | 203 | 1.6 | 12.9 | 0.00 | 0.41 | 0.20 | 42 | 1004.3 |
| 20260507170706 | 16 | 245 | 4.8 | 12.9 | 0.00 | 0.41 | 0.20 | 40 | 1004.6 |
| 20260507170200 | 16 | 355 | 3.2 | 8.0 | 0.00 | 0.41 | 0.20 | 42 | 1004.6 |
| 20260507165659 | 16 | 345 | 1.6 | 8.0 | 0.00 | 0.41 | 0.20 | 42 | 1004.7 |
| 20260507165157 | 17 | 293 | 0.0 | 9.7 | 0.00 | 0.41 | 0.20 | 44 | 1004.7 |
| 20260507164657 | 16 | 4 | 3.2 | 9.7 | 0.00 | 0.41 | 0.20 | 44 | 1004.6 |
| 20260507164200 | 17 | 350 | 3.2 | 8.0 | 0.00 | 0.41 | 0.20 | 42 | 1004.6 |
| 20260507163700 | 17 | 338 | 1.6 | 14.5 | 0.00 | 0.41 | 0.20 | 42 | 1004.5 |
| 20260507163200 | 17 | 0 | 1.6 | 14.5 | 0.00 | 0.41 | 0.20 | 47 | 1004.7 |
| 20260507162659 | 17 | 23 | 3.2 | 8.0 | 0.00 | 0.41 | 0.20 | 50 | 1004.7 |
| 20260507162428 | 16 | 331 | 4.8 | 14.5 | 0.00 | 0.41 | 0.20 | 48 | 1004.8 |
| 20260507161702 | 16 | 310 | 6.4 | 14.5 | 0.00 | 0.41 | 0.20 | 49 | 1004.8 |
| 20260507161158 | 16 | 334 | 6.4 | 14.5 | 0.00 | 0.41 | 0.20 | 51 | 1005.0 |
| 20260507160655 | 16 | 326 | 4.8 | 12.9 | 0.00 | 0.41 | 0.20 | 51 | 1004.9 |
| 20260507160153 | 16 | 335 | 1.6 | 8.0 | 0.00 | 0.41 | 0.20 | 53 | 1005.0 |
| 20260507155653 | 16 | 115 | 1.6 | 9.7 | 0.00 | 0.41 | 0.20 | 54 | 1005.0 |
| 20260507155158 | 15 | 240 | 1.6 | 9.7 | 0.00 | 0.41 | 0.20 | 63 | 1005.1 |
| 20260507154653 | 15 | 304 | 1.6 | 8.0 | 0.00 | 0.41 | 0.20 | 57 | 1005.1 |
| 20260507154154 | 15 | 268 | 3.2 | 9.7 | 0.00 | 0.41 | 0.20 | 55 | 1005.1 |
| 20260507153653 | 15 | 323 | 3.2 | 9.7 | 0.00 | 0.41 | 0.20 | 61 | 1005.2 |
| 20260507153152 | 15 | 270 | 3.2 | 8.0 | 0.00 | 0.41 | 0.20 | 62 | 1005.1 |
| 20260507152653 | 15 | 328 | 3.2 | 8.0 | 0.00 | 0.41 | 0.20 | 58 | 1005.2 |
| 20260507152153 | 15 | 328 | 1.6 | 8.0 | 0.00 | 0.41 | 0.20 | 60 | 1005.2 |
| 20260507151652 | 15 | 306 | 0.0 | 0.0 | 0.00 | 0.41 | 0.20 | 65 | 1005.3 |
| 20260507151152 | 14 | 345 | 0.0 | 4.8 | 0.00 | 0.41 | 0.20 | 65 | 1005.5 |
| 20260507150653 | 13 | 328 | 1.6 | 8.0 | 0.00 | 0.41 | 0.20 | 63 | 1005.5 |
| 20260507150153 | 14 | 326 | 0.0 | 8.0 | 0.00 | 0.41 | 0.20 | 63 | 1005.6 |
| 20260507145655 | 13 | 338 | 0.0 | 0.0 | 0.00 | 0.41 | 0.20 | 66 | 1005.5 |
| 20260507145153 | 13 | 309 | 0.0 | 0.0 | 0.00 | 0.41 | 0.20 | 65 | 1005.6 |
| 20260507144652 | 13 | 253 | 1.6 | 4.8 | 0.00 | 0.41 | 0.20 | 67 | 1005.7 |
| 20260507144152 | 13 | 325 | 3.2 | 8.0 | 0.00 | 0.41 | 0.20 | 67 | 1005.7 |
| 20260507143653 | 13 | 328 | 3.2 | 8.0 | 0.00 | 0.41 | 0.20 | 64 | 1005.8 |
| 20260507143150 | 13 | 313 | 3.2 | 11.3 | 0.00 | 0.41 | 0.20 | 63 | 1005.8 |
| 20260507142649 | 13 | 276 | 1.6 | 11.3 | 0.00 | 0.41 | 0.20 | 65 | 1005.7 |
| 20260507142149 | 13 | 251 | 1.6 | 11.3 | 0.00 | 0.41 | 0.20 | 67 | 1005.7 |
| 20260507141646 | 13 | 280 | 3.2 | 11.3 | 0.00 | 0.41 | 0.20 | 66 | 1005.8 |
| 20260507141144 | 13 | 211 | 3.2 | 9.7 | 0.00 | 0.41 | 0.20 | 66 | 1005.8 |
| 20260507140645 | 13 | 226 | 3.2 | 11.3 | 0.00 | 0.41 | 0.20 | 69 | 1005.8 |
| 20260507140406 | 13 | 244 | 3.2 | 11.3 | 0.00 | 0.41 | 0.20 | 68 | 1005.8 |
| 20260507135651 | 13 | 340 | 3.2 | 6.4 | 0.00 | 0.41 | 0.20 | 69 | 1005.8 |
| 20260507135143 | 12 | 350 | 3.2 | 11.3 | 0.00 | 0.41 | 0.20 | 72 | 1005.8 |
| 20260507134644 | 12 | 313 | 4.8 | 11.3 | 0.00 | 0.41 | 0.20 | 74 | 1005.7 |
| 20260507134143 | 11 | 324 | 3.2 | 8.0 | 0.00 | 0.41 | 0.20 | 77 | 1005.7 |
| 20260507133639 | 11 | 231 | 3.2 | 8.0 | 0.00 | 0.41 | 0.20 | 84 | 1005.7 |
| 20260507133140 | 10 | 355 | 3.2 | 6.4 | 0.00 | 0.41 | 0.20 | 87 | 1005.8 |
| 20260507132641 | 10 | 328 | 3.2 | 6.4 | 0.00 | 0.41 | 0.20 | 88 | 1005.9 |
| 20260507132359 | 10 | 330 | 3.2 | 6.4 | 0.00 | 0.41 | 0.20 | 89 | 1005.9 |
| 20260507131643 | 10 | 264 | 3.2 | 6.4 | 0.00 | 0.41 | 0.20 | 90 | 1006.0 |
| 20260507131135 | 10 | 319 | 3.2 | 8.0 | 0.00 | 0.41 | 0.20 | 91 | 1006.1 |
| 20260507130625 | 10 | 309 | 4.8 | 8.0 | 0.00 | 0.41 | 0.20 | 91 | 1006.0 |
| 20260507130119 | 10 | 326 | 3.2 | 6.4 | 0.00 | 0.41 | 0.20 | 92 | 1006.0 |
| 20260507125613 | 10 | 334 | 3.2 | 4.8 | 0.00 | 0.41 | 0.20 | 93 | 1006.0 |
| 20260507125059 | 9 | 335 | 3.2 | 4.8 | 0.00 | 0.41 | 0.20 | 93 | 1006.1 |
| 20260507124553 | 9 | 296 | 3.2 | 8.0 | 0.00 | 0.41 | 0.20 | 93 | 1006.2 |
| 20260507124047 | 9 | 243 | 3.2 | 8.0 | 0.00 | 0.41 | 0.20 | 93 | 1006.2 |
| 20260507123032 | 9 | 303 | 1.6 | 4.8 | 0.00 | 0.41 | 0.20 | 93 | 1006.3 |
| 20260507122525 | 9 | 303 | 3.2 | 4.8 | 0.00 | 0.41 | 0.20 | 93 | 1006.1 |
| 20260507122011 | 9 | 303 | 3.2 | 4.8 | 0.00 | 0.41 | 0.20 | 93 | 1006.0 |
| 20260507121505 | 9 | 302 | 3.2 | 4.8 | 0.00 | 0.41 | 0.20 | 93 | 1006.1 |
| 20260507120959 | 9 | 302 | 3.2 | 4.8 | 0.00 | 0.41 | 0.20 | 93 | 1006.2 |
| 20260507120450 | 9 | 302 | 3.2 | 4.8 | 0.00 | 0.41 | 0.20 | 93 | 1006.0 |
| 20260507115944 | 9 | 301 | 3.2 | 4.8 | 0.00 | 0.41 | 0.20 | 93 | 1005.9 |
| 20260507115439 | 9 | 301 | 3.2 | 4.8 | 0.00 | 0.41 | 0.20 | 93 | 1006.0 |
| 20260507114923 | 9 | 301 | 1.6 | 4.8 | 0.00 | 0.41 | 0.20 | 93 | 1006.1 |
| 20260507114417 | 9 | 290 | 1.6 | 4.8 | 0.00 | 0.41 | 0.20 | 93 | 1006.1 |
| 20260507113912 | 9 | 287 | 1.6 | 4.8 | 0.00 | 0.41 | 0.20 | 93 | 1006.0 |
| 20260507113401 | 9 | 273 | 0.0 | 0.0 | 0.00 | 0.41 | 0.20 | 93 | 1005.9 |
| 20260507112855 | 9 | 273 | 0.0 | 0.0 | 0.00 | 0.41 | 0.20 | 93 | 1006.0 |
| 20260507111836 | 9 | 272 | 0.0 | 0.0 | 0.00 | 0.41 | 0.20 | 92 | 1006.0 |
| 20260507111329 | 9 | 272 | 0.0 | 0.0 | 0.00 | 0.41 | 0.20 | 92 | 1005.9 |
| 20260507110824 | 9 | 272 | 0.0 | 0.0 | 0.00 | 0.41 | 0.20 | 92 | 1005.9 |
| 20260507105807 | 9 | 272 | 0.0 | 1.6 | 0.03 | 0.41 | 0.20 | 92 | 1005.7 |
| 20260507105523 | 9 | 272 | 0.0 | 3.2 | 0.03 | 0.41 | 0.20 | 92 | 1005.9 |
| 20260507104747 | 9 | 272 | 1.6 | 3.2 | 0.03 | 0.41 | 0.20 | 92 | 1005.9 |
| 20260507104241 | 9 | 272 | 1.6 | 3.2 | 0.03 | 0.41 | 0.20 | 92 | 1006.0 |
| 20260507104004 | 9 | 272 | 1.6 | 3.2 | 0.05 | 0.41 | 0.20 | 92 | 1006.0 |
| 20260507103235 | 9 | 272 | 1.6 | 3.2 | 0.05 | 0.41 | 0.20 | 92 | 1005.9 |
| 20260507103000 | 9 | 272 | 0.0 | 1.6 | 0.05 | 0.41 | 0.20 | 92 | 1005.6 |
| 20260507102235 | 9 | 276 | 0.0 | 1.6 | 0.05 | 0.41 | 0.20 | 92 | 1005.5 |
| 20260507101738 | 9 | 312 | 0.0 | 1.6 | 0.05 | 0.41 | 0.20 | 92 | 1005.5 |
| 20260507101236 | 9 | 315 | 0.0 | 1.6 | 0.10 | 0.41 | 0.20 | 92 | 1005.2 |
| 20260507100735 | 9 | 315 | 0.0 | 3.2 | 0.13 | 0.41 | 0.20 | 92 | 1005.2 |
| 20260507100232 | 9 | 315 | 1.6 | 3.2 | 0.10 | 0.38 | 0.18 | 92 | 1005.4 |
| 20260507095735 | 9 | 314 | 0.0 | 3.2 | 0.13 | 0.38 | 0.18 | 92 | 1005.3 |
| 20260507095232 | 9 | 314 | 0.0 | 3.2 | 0.13 | 0.38 | 0.18 | 91 | 1005.2 |
| 20260507094732 | 9 | 315 | 1.6 | 4.8 | 0.13 | 0.38 | 0.18 | 91 | 1005.1 |
| 20260507094232 | 9 | 315 | 1.6 | 6.4 | 0.13 | 0.38 | 0.18 | 91 | 1005.1 |
| 20260507093950 | 9 | 345 | 1.6 | 6.4 | 0.10 | 0.36 | 0.15 | 91 | 1005.0 |
| 20260507093228 | 9 | 311 | 1.6 | 6.4 | 0.10 | 0.36 | 0.15 | 91 | 1005.2 |
| 20260507092722 | 9 | 308 | 1.6 | 3.2 | 0.10 | 0.36 | 0.15 | 91 | 1005.4 |
| 20260507092229 | 10 | 308 | 1.6 | 4.8 | 0.13 | 0.36 | 0.15 | 91 | 1005.4 |
| 20260507091727 | 10 | 305 | 1.6 | 4.8 | 0.13 | 0.36 | 0.15 | 91 | 1005.3 |
| 20260507091243 | 10 | 286 | 1.6 | 3.2 | 0.08 | 0.30 | 0.10 | 91 | 1005.2 |
| 20260507090723 | 10 | 279 | 1.6 | 3.2 | 0.05 | 0.28 | 0.08 | 91 | 1005.4 |
| 20260507090223 | 10 | 261 | 1.6 | 3.2 | 0.05 | 0.28 | 0.08 | 91 | 1005.6 |
| 20260507085941 | 10 | 259 | 1.6 | 4.8 | 0.03 | 0.25 | 0.05 | 91 | 1005.7 |
| 20260507085218 | 10 | 255 | 1.6 | 4.8 | 0.03 | 0.25 | 0.05 | 91 | 1005.5 |
| 20260507084716 | 10 | 317 | 1.6 | 6.4 | 0.03 | 0.25 | 0.05 | 91 | 1005.4 |
| 20260507084218 | 10 | 313 | 1.6 | 4.8 | 0.03 | 0.25 | 0.05 | 91 | 1005.4 |
| 20260507083716 | 10 | 305 | 1.6 | 4.8 | 0.05 | 0.25 | 0.05 | 90 | 1005.4 |
| 20260507083218 | 10 | 305 | 1.6 | 4.8 | 0.05 | 0.25 | 0.05 | 90 | 1005.4 |
| 20260507082717 | 10 | 298 | 1.6 | 4.8 | 0.05 | 0.25 | 0.05 | 91 | 1005.3 |
| 20260507082445 | 10 | 299 | 1.6 | 4.8 | 0.03 | 0.23 | 0.03 | 90 | 1005.1 |
| 20260507081714 | 10 | 299 | 1.6 | 3.2 | 0.03 | 0.23 | 0.03 | 90 | 1005.0 |
| 20260507081215 | 10 | 299 | 1.6 | 4.8 | 0.03 | 0.23 | 0.03 | 90 | 1004.9 |
| 20260507080943 | 11 | 302 | 1.6 | 4.8 | 0.03 | 0.23 | 0.03 | 90 | 1004.9 |
| 20260507080219 | 11 | 330 | 1.6 | 6.4 | 0.03 | 0.23 | 0.03 | 90 | 1005.1 |
| 20260507075723 | 11 | 330 | 3.2 | 6.4 | 0.03 | 0.23 | 0.03 | 90 | 1005.2 |
| 20260507075216 | 11 | 311 | 3.2 | 6.4 | 0.03 | 0.23 | 0.03 | 90 | 1005.2 |
| 20260507074720 | 11 | 314 | 1.6 | 6.4 | 0.03 | 0.23 | 0.03 | 90 | 1005.1 |
| 20260507074443 | 11 | 302 | 1.6 | 9.7 | 0.03 | 0.23 | 0.03 | 90 | 1004.9 |
| 20260507073716 | 11 | 282 | 1.6 | 9.7 | 0.00 | 0.20 | 0.00 | 91 | 1004.9 |
| 20260507073211 | 11 | 321 | 0.0 | 4.8 | 0.00 | 0.20 | 0.00 | 91 | 1005.2 |
| 20260507072711 | 11 | 311 | 0.0 | 0.0 | 0.00 | 0.20 | 0.00 | 91 | 1005.0 |
| 20260507072213 | 11 | 309 | 0.0 | 0.0 | 0.00 | 0.20 | 0.00 | 91 | 1004.5 |
| 20260507071711 | 12 | 309 | 0.0 | 0.0 | 0.00 | 0.20 | 0.00 | 91 | 1004.2 |
| 20260507071204 | 12 | 308 | 0.0 | 0.0 | 0.00 | 0.20 | 0.00 | 91 | 1004.2 |
| 20260507070705 | 12 | 307 | 0.0 | 0.0 | 0.00 | 0.20 | 0.00 | 91 | 1004.3 |
| 20260507070450 | 12 | 299 | 0.0 | 0.0 | 0.00 | 0.20 | 0.00 | 92 | 1004.4 |
| 20260507065702 | 12 | 241 | 0.0 | 0.0 | 0.00 | 0.20 | 0.00 | 92 | 1004.4 |
| 20260507065203 | 12 | 312 | 0.0 | 0.0 | 0.00 | 0.20 | 0.00 | 92 | 1004.2 |
| 20260507064701 | 12 | 281 | 0.0 | 0.0 | 0.00 | 0.20 | 0.00 | 92 | 1004.3 |
| 20260507064200 | 12 | 259 | 0.0 | 0.0 | 0.00 | 0.20 | 0.00 | 92 | 1004.2 |
| 20260507063701 | 12 | 259 | 0.0 | 0.0 | 0.00 | 0.20 | 0.00 | 92 | 1004.3 |
| 20260507063203 | 12 | 328 | 0.0 | 0.0 | 0.00 | 0.20 | 0.00 | 92 | 1004.4 |
| 20260507062655 | 12 | 328 | 0.0 | 0.0 | 0.00 | 0.20 | 0.00 | 92 | 1004.4 |
| 20260507062420 | 12 | 327 | 0.0 | 0.0 | 0.00 | 0.20 | 0.00 | 93 | 1004.5 |
| 20260507061656 | 12 | 329 | 0.0 | 0.0 | 0.00 | 0.20 | 0.00 | 93 | 1004.4 |
| 20260507061153 | 12 | 329 | 0.0 | 0.0 | 0.00 | 0.20 | 0.00 | 93 | 1004.2 |
| 20260507060652 | 12 | 329 | 0.0 | 0.0 | 0.00 | 0.20 | 0.00 | 93 | 1004.2 |
| 20260507060152 | 13 | 329 | 0.0 | 0.0 | 0.00 | 0.20 | 0.00 | 93 | 1004.4 |
| 20260507055650 | 13 | 328 | 0.0 | 0.0 | 0.00 | 0.20 | 0.00 | 93 | 1004.4 |
| 20260507055424 | 13 | 328 | 0.0 | 0.0 | 0.00 | 0.20 | 0.00 | 93 | 1004.5 |
| 20260507054647 | 13 | 328 | 0.0 | 0.0 | 0.00 | 0.20 | 0.00 | 93 | 1004.5 |
| 20260507054147 | 13 | 331 | 0.0 | 0.0 | 0.00 | 0.20 | 0.00 | 93 | 1004.6 |
| 20260507053647 | 13 | 313 | 0.0 | 0.0 | 0.00 | 0.20 | 0.00 | 93 | 1004.7 |
| 20260507053149 | 13 | 313 | 0.0 | 0.0 | 0.00 | 0.20 | 0.00 | 93 | 1004.8 |
| 20260507052647 | 13 | 313 | 0.0 | 0.0 | 0.00 | 0.20 | 0.00 | 94 | 1004.7 |
| 20260507052151 | 13 | 313 | 0.0 | 0.0 | 0.00 | 0.20 | 0.00 | 94 | 1004.5 |
| 20260507051650 | 13 | 312 | 0.0 | 1.6 | 0.00 | 0.20 | 0.00 | 94 | 1004.5 |
| 20260507051148 | 13 | 323 | 0.0 | 1.6 | 0.00 | 0.20 | 0.00 | 94 | 1004.2 |
| 20260507050648 | 13 | 323 | 0.0 | 0.0 | 0.00 | 0.20 | 0.00 | 94 | 1004.3 |
| 20260507050147 | 13 | 323 | 1.6 | 6.4 | 0.00 | 0.20 | 0.00 | 94 | 1004.3 |
| 20260507045905 | 13 | 322 | 1.6 | 6.4 | 0.00 | 0.20 | 0.00 | 94 | 1004.4 |
| 20260507045141 | 14 | 329 | 1.6 | 4.8 | 0.00 | 0.20 | 0.00 | 94 | 1004.6 |
| 20260507044656 | 14 | 320 | 1.6 | 4.8 | 0.00 | 0.20 | 0.00 | 94 | 1004.6 |
| 20260507044141 | 14 | 317 | 1.6 | 4.8 | 0.00 | 0.20 | 0.00 | 94 | 1004.6 |
| 20260507043641 | 14 | 311 | 1.6 | 4.8 | 0.00 | 0.20 | 0.00 | 94 | 1004.5 |
| 20260507043141 | 14 | 321 | 0.0 | 3.2 | 0.00 | 0.20 | 0.00 | 94 | 1004.4 |
| 20260507042909 | 15 | 320 | 1.6 | 4.8 | 0.00 | 0.20 | 0.00 | 94 | 1004.3 |
| 20260507042143 | 15 | 328 | 1.6 | 4.8 | 0.00 | 0.20 | 0.00 | 94 | 1004.5 |
| 20260507041642 | 15 | 320 | 1.6 | 4.8 | 0.00 | 0.20 | 0.00 | 94 | 1004.4 |
| 20260507041142 | 15 | 300 | 1.6 | 4.8 | 0.00 | 0.20 | 0.00 | 94 | 1004.4 |
| 20260507040643 | 15 | 215 | 1.6 | 6.4 | 0.00 | 0.20 | 0.00 | 94 | 1004.5 |
| 20260507040143 | 15 | 232 | 0.0 | 6.4 | 0.00 | 0.20 | 0.00 | 94 | 1004.7 |
| 20260507035640 | 15 | 274 | 0.0 | 0.0 | 0.00 | 0.20 | 0.20 | 94 | 1004.8 |
| 20260507035141 | 15 | 253 | 0.0 | 0.0 | 0.00 | 0.20 | 0.20 | 94 | 1004.7 |
| 20260507034639 | 15 | 256 | 0.0 | 0.0 | 0.00 | 0.20 | 0.20 | 94 | 1004.5 |
| 20260507034141 | 15 | 195 | 1.6 | 6.4 | 0.00 | 0.20 | 0.20 | 94 | 1004.3 |
| 20260507033638 | 15 | 267 | 1.6 | 9.7 | 0.00 | 0.20 | 0.20 | 94 | 1004.4 |
| 20260507033401 | 15 | 247 | 1.6 | 9.7 | 0.00 | 0.20 | 0.20 | 94 | 1004.1 |
| 20260507032626 | 15 | 286 | 1.6 | 11.3 | 0.00 | 0.20 | 0.20 | 94 | 1004.2 |
| 20260507032345 | 15 | 265 | 1.6 | 11.3 | 0.00 | 0.20 | 0.20 | 94 | 1004.4 |
| 20260507031629 | 15 | 281 | 1.6 | 14.5 | 0.00 | 0.20 | 0.20 | 94 | 1004.1 |
| 20260507031125 | 15 | 230 | 3.2 | 17.7 | 0.00 | 0.20 | 0.20 | 94 | 1004.0 |
| 20260507030626 | 15 | 254 | 3.2 | 17.7 | 0.00 | 0.20 | 0.20 | 94 | 1003.8 |
| 20260507030126 | 15 | 237 | 3.2 | 12.9 | 0.00 | 0.20 | 0.20 | 94 | 1003.8 |
| 20260507025623 | 15 | 250 | 3.2 | 14.5 | 0.00 | 0.20 | 0.20 | 94 | 1003.7 |
| 20260507025123 | 15 | 232 | 3.2 | 14.5 | 0.00 | 0.20 | 0.20 | 94 | 1003.6 |
| 20260507024120 | 15 | 242 | 3.2 | 12.9 | 0.00 | 0.20 | 0.20 | 94 | 1003.7 |
| 20260507023622 | 15 | 215 | 3.2 | 16.1 | 0.00 | 0.20 | 0.20 | 94 | 1003.9 |
| 20260507022619 | 15 | 234 | 3.2 | 22.5 | 0.00 | 0.20 | 0.20 | 94 | 1003.9 |
| 20260507022115 | 15 | 231 | 3.2 | 22.5 | 0.00 | 0.20 | 0.20 | 94 | 1003.9 |
| 20260507021833 | 15 | 210 | 4.8 | 16.1 | 0.00 | 0.20 | 0.20 | 94 | 1003.8 |
| 20260507021338 | 15 | 189 | 3.2 | 16.1 | 0.00 | 0.20 | 0.20 | 94 | 1003.9 |
| 20260507020619 | 15 | 250 | 1.6 | 14.5 | 0.00 | 0.20 | 0.20 | 94 | 1003.8 |
| 20260507020115 | 15 | 205 | 1.6 | 11.3 | 0.00 | 0.20 | 0.20 | 94 | 1003.9 |
| 20260507015621 | 15 | 181 | 4.8 | 12.9 | 0.03 | 0.20 | 0.20 | 94 | 1003.8 |
| 20260507015115 | 15 | 200 | 4.8 | 20.9 | 0.03 | 0.20 | 0.20 | 94 | 1003.7 |
| 20260507014840 | 15 | 247 | 3.2 | 20.9 | 0.03 | 0.20 | 0.20 | 94 | 1003.7 |
| 20260507013833 | 15 | 218 | 4.8 | 14.5 | 0.03 | 0.20 | 0.20 | 94 | 1003.8 |
| 20260507013111 | 15 | 247 | 4.8 | 14.5 | 0.03 | 0.20 | 0.20 | 93 | 1003.8 |
| 20260507012828 | 15 | 226 | 4.8 | 14.5 | 0.03 | 0.20 | 0.20 | 93 | 1003.8 |
| 20260507012109 | 15 | 224 | 3.2 | 11.3 | 0.03 | 0.20 | 0.20 | 93 | 1003.9 |
| 20260507011612 | 15 | 269 | 3.2 | 14.5 | 0.03 | 0.20 | 0.20 | 93 | 1004.0 |
| 20260507011339 | 15 | 252 | 3.2 | 14.5 | 0.03 | 0.20 | 0.20 | 93 | 1004.0 |
| 20260507010609 | 15 | 247 | 3.2 | 14.5 | 0.03 | 0.20 | 0.20 | 93 | 1004.1 |
| 20260507005544 | 15 | 235 | 4.8 | 19.3 | 0.00 | 0.18 | 0.18 | 93 | 1004.1 |
| 20260507005251 | 15 | 234 | 3.2 | 19.3 | 0.00 | 0.18 | 0.18 | 93 | 1004.2 |
| 20260507004524 | 15 | 154 | 4.8 | 19.3 | 0.00 | 0.18 | 0.18 | 93 | 1004.2 |
| 20260507004242 | 15 | 213 | 4.8 | 19.3 | 0.00 | 0.18 | 0.18 | 93 | 1004.2 |
| 20260507003509 | 15 | 235 | 3.2 | 17.7 | 0.00 | 0.18 | 0.18 | 93 | 1004.0 |
| 20260507003002 | 15 | 238 | 3.2 | 17.7 | 0.00 | 0.18 | 0.18 | 93 | 1004.0 |
| 20260507002457 | 15 | 256 | 3.2 | 16.1 | 0.00 | 0.18 | 0.18 | 93 | 1004.0 |
| 20260507001943 | 15 | 208 | 3.2 | 17.7 | 0.03 | 0.18 | 0.18 | 93 | 1004.1 |
| 20260507001439 | 15 | 155 | 3.2 | 17.7 | 0.05 | 0.18 | 0.18 | 93 | 1004.1 |
| 20260507000930 | 15 | 253 | 4.8 | 11.3 | 0.05 | 0.18 | 0.18 | 93 | 1003.9 |
| 20260507000647 | 15 | 188 | 4.8 | 19.3 | 0.05 | 0.18 | 0.18 | 92 | 1003.7 |
| 20260506235914 | 15 | 187 | 3.2 | 19.3 | 0.05 | 0.18 | 0.18 | 92 | 1003.7 |
| 20260506235410 | 15 | 234 | 3.2 | 19.3 | 0.05 | 0.18 | 0.18 | 92 | 1003.8 |
| 20260506235116 | 15 | 249 | 1.6 | 9.7 | 0.05 | 0.18 | 0.18 | 92 | 1003.8 |
| 20260506234349 | 15 | 210 | 3.2 | 12.9 | 0.05 | 0.18 | 0.18 | 92 | 1003.8 |
| 20260506233843 | 15 | 234 | 3.2 | 17.7 | 0.05 | 0.18 | 0.18 | 92 | 1003.9 |
| 20260506233332 | 15 | 147 | 3.2 | 17.7 | 0.05 | 0.18 | 0.18 | 92 | 1003.8 |
| 20260506232826 | 15 | 231 | 1.6 | 12.9 | 0.08 | 0.18 | 0.18 | 92 | 1003.7 |
| 20260506232320 | 15 | 227 | 3.2 | 16.1 | 0.08 | 0.18 | 0.18 | 92 | 1003.8 |
| 20260506231312 | 15 | 222 | 4.8 | 16.1 | 0.03 | 0.13 | 0.13 | 92 | 1003.8 |
| 20260506231018 | 15 | 234 | 4.8 | 14.5 | 0.03 | 0.13 | 0.13 | 91 | 1003.7 |
| 20260506230251 | 15 | 227 | 4.8 | 14.5 | 0.03 | 0.13 | 0.13 | 92 | 1003.7 |
| 20260506230016 | 15 | 217 | 3.2 | 12.9 | 0.03 | 0.13 | 0.13 | 91 | 1003.7 |
| 20260506225510 | 15 | 181 | 4.8 | 19.3 | 0.03 | 0.13 | 0.13 | 91 | 1003.7 |
| 20260506224749 | 15 | 240 | 4.8 | 20.9 | 0.05 | 0.13 | 0.13 | 91 | 1003.9 |
| 20260506224249 | 15 | 276 | 3.2 | 20.9 | 0.05 | 0.13 | 0.13 | 91 | 1003.9 |
| 20260506223749 | 15 | 235 | 3.2 | 12.9 | 0.05 | 0.13 | 0.13 | 91 | 1003.9 |
| 20260506223248 | 15 | 207 | 3.2 | 14.5 | 0.05 | 0.13 | 0.13 | 91 | 1004.0 |
| 20260506222752 | 16 | 186 | 4.8 | 14.5 | 0.03 | 0.10 | 0.10 | 90 | 1004.0 |
| 20260506222251 | 16 | 229 | 3.2 | 11.3 | 0.03 | 0.10 | 0.10 | 90 | 1004.0 |
| 20260506221750 | 16 | 222 | 3.2 | 16.1 | 0.03 | 0.10 | 0.10 | 90 | 1004.2 |
| 20260506221251 | 16 | 213 | 3.2 | 16.1 | 0.03 | 0.10 | 0.10 | 90 | 1004.2 |
| 20260506220747 | 16 | 203 | 1.6 | 9.7 | 0.03 | 0.10 | 0.10 | 89 | 1004.2 |
| 20260506220248 | 16 | 206 | 1.6 | 14.5 | 0.03 | 0.10 | 0.10 | 89 | 1004.2 |
| 20260506215748 | 16 | 239 | 1.6 | 14.5 | 0.03 | 0.10 | 0.10 | 89 | 1004.2 |
| 20260506215511 | 16 | 232 | 0.0 | 12.9 | 0.03 | 0.10 | 0.10 | 89 | 1004.3 |
| 20260506214742 | 16 | 242 | 0.0 | 6.4 | 0.00 | 0.08 | 0.08 | 89 | 1004.5 |
| 20260506214242 | 16 | 219 | 0.0 | 6.4 | 0.00 | 0.08 | 0.08 | 88 | 1004.5 |
| 20260506213738 | 16 | 169 | 1.6 | 20.9 | 0.00 | 0.08 | 0.08 | 88 | 1004.6 |
| 20260506213238 | 16 | 188 | 1.6 | 22.5 | 0.00 | 0.08 | 0.08 | 88 | 1004.6 |
| 20260506212739 | 16 | 249 | 1.6 | 22.5 | 0.03 | 0.08 | 0.08 | 88 | 1004.7 |
| 20260506212238 | 16 | 217 | 0.0 | 14.5 | 0.03 | 0.08 | 0.08 | 88 | 1004.5 |
| 20260506211738 | 16 | 236 | 0.0 | 14.5 | 0.03 | 0.08 | 0.08 | 88 | 1004.5 |
| 20260506211507 | 16 | 245 | 0.0 | 11.3 | 0.03 | 0.08 | 0.08 | 88 | 1004.7 |
| 20260506210739 | 16 | 226 | 0.0 | 16.1 | 0.03 | 0.08 | 0.08 | 87 | 1004.6 |
| 20260506210501 | 16 | 251 | 1.6 | 16.1 | 0.03 | 0.08 | 0.08 | 87 | 1004.6 |
| 20260506205737 | 16 | 243 | 0.0 | 16.1 | 0.03 | 0.08 | 0.08 | 87 | 1004.6 |
| 20260506205235 | 16 | 230 | 0.0 | 19.3 | 0.03 | 0.08 | 0.08 | 87 | 1004.6 |
| 20260506204738 | 16 | 187 | 0.0 | 19.3 | 0.03 | 0.08 | 0.08 | 86 | 1004.7 |
| 20260506204235 | 16 | 237 | 0.0 | 9.7 | 0.05 | 0.08 | 0.08 | 86 | 1004.8 |
| 20260506203734 | 16 | 190 | 0.0 | 9.7 | 0.05 | 0.08 | 0.08 | 85 | 1004.9 |
| 20260506203459 | 16 | 233 | 0.0 | 0.0 | 0.05 | 0.08 | 0.08 | 85 | 1004.9 |
| 20260506202730 | 17 | 231 | 0.0 | 12.9 | 0.05 | 0.05 | 0.05 | 85 | 1004.9 |
| 20260506202455 | 17 | 174 | 0.0 | 12.9 | 0.05 | 0.05 | 0.05 | 84 | 1004.9 |